Regional Weather Roundup
Issued by NWS

Home | Current Version | Previous Version | Text Only | Print | Product List | Glossary Off
Versions: 1 2 3 4 5 6 7 8 9 10 11 12 13 14 15 16 17 18 19 20 21 22 23 24 25 26 27 28 29 30 31 32 33 34 35 36 37 38 39 40 41 42 43 44 45 46 47 48 49 50

000
ASUS45 KBOU 010007
RWRCO

WEATHER ROUNDUP FOR COLORADO
NATIONAL WEATHER SERVICE DENVER/BOULDER CO
500 PM MST SAT FEB 28 2015

NOTE: "FAIR" INDICATES FEW OR NO CLOUDS BELOW 12000 FEET WITH NO
SIGNIFICANT WEATHER AND/OR OBSTRUCTIONS TO VISIBILITY.

COZ001>005-013-030-031-010100-
...NORTHWEST COLORADO...

CITY           SKY/WX    TMP DP  RH WIND       PRES   REMARKS
CRAIG          CLOUDY    37  19  48 SW8       29.74R
HAYDEN         CLOUDY    36  12  38 E3        29.73R
MEEKER         SNOW      32  27  81 CALM      29.74R VSB 1/2
MOUNT WERNER   NOT AVBL
STEAMBOAT SPGS CLOUDY    32  14  46 CALM      29.72R
WALDEN         CLOUDY    28  12  50 CALM      29.73R
$$

COZ006>008-011-010100-
...WEST CENTRAL VALLEYS...

CITY           SKY/WX    TMP DP  RH WIND       PRES   REMARKS
GRAND JUNCTION CLOUDY    41  28  60 S12       29.75R
MONTROSE       FLURRIES  32  29  88 SE9       29.81R WCI  24
EAGLE          PTSUNNY   36  19  51 CALM      29.76S
RIFLE          CLOUDY    42  19  39 W9        29.75R
DELTA          CLOUDY    42  32  69 CALM      29.79R
NUCLA          CLOUDY    36  32  87 S8        29.82R
$$

COZ017>023-064>068-010100-
...SOUTHWEST COLORADO...

CITY           SKY/WX    TMP DP  RH WIND       PRES   REMARKS
DURANGO        CLOUDY    30  28  92 E5        29.84R WCI  25
CORTEZ         PTSUNNY   34  33  96 E3        29.82S
PAGOSA SPRINGS SNOW      30  29  98 S3        29.85R VSB 1/2
TELLURIDE      FLURRIES  29  24  82 CALM      29.79S
WOLF CREEK PAS HVY SNOW  16  16 100 SW32G45   29.80S VSB<1/4 WCI  -5
$$

COZ009-010-012-014-032>034-037-058>063-010100-
...CENTRAL COLORADO...

CITY           SKY/WX    TMP DP  RH WIND       PRES   REMARKS
ASPEN          LGT SNOW  29  24  82 SE6       29.74R WCI  23
BUENA VISTA    LGT SNOW  27  24  89 E3        29.78S
COPPER MTN     LGT SNOW  19  12  73 MISG      29.73F VSB 1
BERTHOUD PASS  SNOW       9   3  78 SE12      29.75R VSB 1/2 WCI  -6
COTTONWOOD PAS LGT SNOW  25  23  93 CALM      29.76S VSB 3/4
GUNNISON       CLOUDY    27  19  74 CALM      29.82R VSB 1/2
KREMMLING      CLOUDY    32  14  47 CALM      29.76R
LEADVILLE      CLOUDY    18  17  96 S9        29.72S WCI   7
SALIDA         CLOUDY    32  21  64 E8G16     29.86R WCI  25
SUNLIGHT       LGT SNOW  23  19  86 CALM        N/A
WILKERSON PASS LGT SNOW  19  16  86 CALM      29.79R
$$

COZ069>075-010100-
...SAN LUIS VALLEY/SANGRE DE CRISTO MOUNTAINS...

CITY           SKY/WX    TMP DP  RH WIND       PRES   REMARKS
ALAMOSA        CLOUDY    27  22  81 S9        29.83R WCI  18
LA VETA PASS   LGT SNOW  21  19  93 S10       29.80S VSB 1   WCI  10
SAGUACHE       LGT SNOW  27  21  80 S7        29.83S WCI  19
$$

COZ035-036-038>040-010100-
...NORTHERN COLORADO FRONT RANGE...

CITY           SKY/WX    TMP DP  RH WIND       PRES   REMARKS
DENVER INTL AP MOCLDY    17  11  77 SE3       29.95R
DMNS CITY PARK   N/A     20  11  68 NE5       29.97R WCI  14
AURORA         MOCLDY    17   9  72 N2        29.96R
FRONT RANGE AP NOT AVBL
ERIE MUNI ARPT MOCLDY    23  13  66 CALM      29.98R
BOULDER MUN AP CLOUDY    23  14  68 W3        29.97R
CENTENNIAL     MOCLDY    19  11  70 N10       29.93R WCI   7
BROOMFIELD     MOCLDY    21  14  73 CALM      29.95R
FORT COLLINS   CLOUDY    25  14  63 S10       29.98R WCI  15
LONGMONT       MOCLDY    27  15  60 CALM      30.00R
$$

COZ041-046-047-076>085-087-088-010100-
...PIKES PEAK/PALMER DIVIDE AND SOUTHERN FOOTHILLS...

CITY           SKY/WX    TMP DP  RH WIND       PRES   REMARKS
COLO. SPRINGS  MOCLDY    17  12  80 SE6       29.92R FOG     WCI   9
A. F. ACADEMY  PTCLDY    19  13  76 S5        29.88R WCI  12
ELLICOTT       NOT AVBL
FALCON         PTCLDY    16  12  84 CALM      29.89S
FORT CARSON    PTCLDY    17  11  78 SE6       29.93R WCI   9
LIMON          CLEAR     20  11  68 CALM      29.95R
MONUMENT HILL  CLEAR     18   9  68 NW5       29.87R WCI  11
TRINIDAD       MOCLDY    23  15  71 NE3       29.92R
$$

COZ042>045-048>051-090-091-010100-
...NORTHEAST COLORADO...

CITY           SKY/WX    TMP DP  RH WIND       PRES   REMARKS
GREELEY ARPT   MOCLDY    27  12  54 E6        29.97R WCI  20
AKRON          CLOUDY    21  14  74 E5        30.00R WCI  15
BURLINGTON     CLOUDY    19  12  74 SE6       30.03S WCI  11
WRAY           CLOUDY    23  13  66 S6        30.07R WCI  16
STERLING       PTCLDY    28  16  59 SE7       30.01R WCI  21
HOLYOKE        NOT AVBL
FORT MORGAN    PTCLDY    24  12  60 E5        30.01R WCI  19
$$

COZ086-089-092>099-010100-
...SOUTHEAST COLORADO...

CITY           SKY/WX    TMP DP  RH WIND       PRES   REMARKS
PUEBLO         CLOUDY    19  12  74 SE5       29.99R WCI  12
LA JUNTA       CLEAR     22  14  71 N5        30.01F WCI  16
LAMAR          CLOUDY    25  16  68 CALM      30.02S
SPRINGFIELD      N/A     21  15  78 NE5       30.00R WCI  15
$$



USA.gov is the U.S. government's official web portal to all federal, state and local government web resources and services.